sat.trackr.live / text

‹ back to catalog

STARLINK-37108

NORAD 68218 · 2026-053M

PAYLOAD ACTIVE UNKNOWN

§ Identity

Operator
Country
US
Launch date
2026-03-17
Launch site
AFWTR
Launch vehicle
Mass (kg)
RCS (m²)

Purposes: comms

External: N2YO · Heavens-Above · Gunter

§ Orbital elements

Epoch: 2026-05-25T03:10:57.434016Z

Period
93.91 min
Inclination
97.2866°
Eccentricity
0.0000761
Mean motion
15.33456982 rev/d
Perigee alt
465.0 km
Apogee alt
466.0 km
Semi-major
6,843.6 km
B*
6.4565e-4
RAAN
20.5898°
Arg perigee
62.4165°
Mean anomaly
297.7155°
Rev number
1,193

§ Raw data

STARLINK-371081 68218U 26053M   26145.13260919  .00020834  00000+0  64565-3 0  99952 68218  97.2866  20.5898 0000761  62.4165 297.7155 15.33456982 11931

JSON: /api/v1/satellites/68218 · /tle

For live sub-satellite position, see the globe view (requires WebGL).

§ Visibility from observer

Set your observer location to see the next 7 days of passes ≥ 10°. The values pass through the URL so the page stays shareable.

No JS? Fill the form by hand. The geolocation button needs JavaScript.